Year,Month,Day,Hour,Minute,Value (Times are PST for temperature in C)
2017,10,13,00,00,5.00
2017,10,13,00,01,5.00
2017,10,13,00,02,5.00
2017,10,13,00,03,5.00
2017,10,13,00,04,5.00
2017,10,13,00,05,4.90
2017,10,13,00,06,4.90
2017,10,13,00,07,4.90
2017,10,13,00,08,4.90
2017,10,13,00,09,4.80
2017,10,13,00,10,4.80
2017,10,13,00,11,4.80
2017,10,13,00,12,4.70
2017,10,13,00,13,4.70
2017,10,13,00,14,4.70
2017,10,13,00,15,4.60
2017,10,13,00,16,4.60
2017,10,13,00,17,4.60
2017,10,13,00,18,4.60
2017,10,13,00,19,4.50
2017,10,13,00,20,4.50
2017,10,13,00,21,4.40
2017,10,13,00,22,4.40
2017,10,13,00,23,4.30
2017,10,13,00,24,4.30
2017,10,13,00,25,4.30
2017,10,13,00,26,4.20
2017,10,13,00,27,4.20
2017,10,13,00,28,4.20
2017,10,13,00,29,4.20
2017,10,13,00,30,4.20
2017,10,13,00,31,4.20
2017,10,13,00,32,4.10
2017,10,13,00,33,4.10
2017,10,13,00,34,4.10
2017,10,13,00,35,4.10
2017,10,13,00,36,4.00
2017,10,13,00,37,4.00
2017,10,13,00,38,4.00
2017,10,13,00,39,4.00
2017,10,13,00,40,3.90
2017,10,13,00,41,3.90
2017,10,13,00,42,3.90
2017,10,13,00,43,3.90
2017,10,13,00,44,3.80
2017,10,13,00,45,3.80
2017,10,13,00,46,3.80
2017,10,13,00,47,3.80
2017,10,13,00,48,3.80
2017,10,13,00,49,3.80
2017,10,13,00,50,3.70
2017,10,13,00,51,3.70
2017,10,13,00,52,3.70
2017,10,13,00,53,3.70
2017,10,13,00,54,3.60
2017,10,13,00,55,3.60
2017,10,13,00,56,3.60
2017,10,13,00,57,3.60
2017,10,13,00,58,3.60
2017,10,13,00,59,3.60
2017,10,13,01,00,3.60
2017,10,13,01,01,3.50
2017,10,13,01,02,3.50
2017,10,13,01,03,3.40
2017,10,13,01,04,3.40
2017,10,13,01,05,3.40
2017,10,13,01,06,3.40
2017,10,13,01,07,3.40
2017,10,13,01,08,3.40
2017,10,13,01,09,3.40
2017,10,13,01,10,3.40
2017,10,13,01,11,3.40
2017,10,13,01,12,3.40
2017,10,13,01,13,3.40
2017,10,13,01,14,3.40
2017,10,13,01,15,3.40
2017,10,13,01,16,3.40
2017,10,13,01,17,3.30
2017,10,13,01,18,3.30
2017,10,13,01,19,3.40
2017,10,13,01,20,3.40
2017,10,13,01,21,3.40
2017,10,13,01,22,3.40
2017,10,13,01,23,3.40
2017,10,13,01,24,3.40
2017,10,13,01,25,3.40
2017,10,13,01,26,3.40
2017,10,13,01,27,3.40
2017,10,13,01,28,3.40
2017,10,13,01,29,3.40
2017,10,13,01,30,3.30
2017,10,13,01,31,3.30
2017,10,13,01,32,3.30
2017,10,13,01,33,3.30
2017,10,13,01,34,3.30
2017,10,13,01,35,3.40
2017,10,13,01,36,3.40
2017,10,13,01,37,3.40
2017,10,13,01,38,3.40
2017,10,13,01,39,3.40
2017,10,13,01,40,3.40
2017,10,13,01,41,3.30
2017,10,13,01,42,3.30
2017,10,13,01,43,3.30
2017,10,13,01,44,3.30
2017,10,13,01,45,3.30
2017,10,13,01,46,3.30
2017,10,13,01,47,3.20
2017,10,13,01,48,3.20
2017,10,13,01,49,3.20
2017,10,13,01,50,3.20
2017,10,13,01,51,3.20
2017,10,13,01,52,3.20
2017,10,13,01,53,3.20
2017,10,13,01,54,3.20
2017,10,13,01,55,3.20
2017,10,13,01,56,3.20
2017,10,13,01,57,3.10
2017,10,13,01,58,3.10
2017,10,13,01,59,3.10
2017,10,13,02,00,3.10
2017,10,13,02,01,3.10
2017,10,13,02,02,3.20
2017,10,13,02,03,3.20
2017,10,13,02,04,3.20
2017,10,13,02,05,3.20
2017,10,13,02,06,3.20
2017,10,13,02,07,3.20
2017,10,13,02,08,3.20
2017,10,13,02,09,3.20
2017,10,13,02,10,3.20
2017,10,13,02,11,3.30
2017,10,13,02,12,3.30
2017,10,13,02,13,3.40
2017,10,13,02,14,3.50
2017,10,13,02,15,3.60
2017,10,13,02,16,3.80
2017,10,13,02,17,3.90
2017,10,13,02,18,4.00
2017,10,13,02,19,4.10
2017,10,13,02,20,4.20
2017,10,13,02,21,4.30
2017,10,13,02,22,4.30
2017,10,13,02,23,4.40
2017,10,13,02,24,4.50
2017,10,13,02,25,4.50
2017,10,13,02,26,4.60
2017,10,13,02,27,4.60
2017,10,13,02,28,4.60
2017,10,13,02,29,4.60
2017,10,13,02,30,4.70
2017,10,13,02,31,4.70
2017,10,13,02,32,4.70
2017,10,13,02,33,4.70
2017,10,13,02,34,4.70
2017,10,13,02,35,4.70
2017,10,13,02,36,4.70
2017,10,13,02,37,4.70
2017,10,13,02,38,4.70
2017,10,13,02,39,4.70
2017,10,13,02,40,4.70
2017,10,13,02,41,4.70
2017,10,13,02,42,4.70
2017,10,13,02,43,4.70
2017,10,13,02,44,4.70
2017,10,13,02,45,4.70
2017,10,13,02,46,4.70
2017,10,13,02,47,4.70
2017,10,13,02,48,4.70
2017,10,13,02,49,4.80
2017,10,13,02,50,4.80
2017,10,13,02,51,4.90
2017,10,13,02,52,4.90
2017,10,13,02,53,4.90
2017,10,13,02,54,5.00
2017,10,13,02,55,5.00
2017,10,13,02,56,5.10
2017,10,13,02,57,5.10
2017,10,13,02,58,5.10
2017,10,13,02,59,5.20
2017,10,13,03,00,5.20
2017,10,13,03,01,5.20
2017,10,13,03,02,5.20
2017,10,13,03,03,5.30
2017,10,13,03,04,5.30
2017,10,13,03,05,5.30
2017,10,13,03,06,5.30
2017,10,13,03,07,5.30
2017,10,13,03,08,5.30
2017,10,13,03,09,5.30
2017,10,13,03,10,5.30
2017,10,13,03,11,5.30
2017,10,13,03,12,5.30
2017,10,13,03,13,5.30
2017,10,13,03,14,5.30
2017,10,13,03,15,5.30
2017,10,13,03,16,5.40
2017,10,13,03,17,5.40
2017,10,13,03,18,5.40
2017,10,13,03,19,5.40
2017,10,13,03,20,5.40
2017,10,13,03,21,5.40
2017,10,13,03,22,5.40
2017,10,13,03,23,5.40
2017,10,13,03,24,5.40
2017,10,13,03,25,5.40
2017,10,13,03,26,5.40
2017,10,13,03,27,5.40
2017,10,13,03,28,5.40
2017,10,13,03,29,5.40
2017,10,13,03,30,5.40
2017,10,13,03,31,5.40
2017,10,13,03,32,5.40
2017,10,13,03,33,5.40
2017,10,13,03,34,5.40
2017,10,13,03,35,5.40
2017,10,13,03,36,5.40
2017,10,13,03,37,5.40
2017,10,13,03,38,5.40
2017,10,13,03,39,5.40
2017,10,13,03,40,5.40
2017,10,13,03,41,5.40
2017,10,13,03,42,5.40
2017,10,13,03,43,5.40
2017,10,13,03,44,5.40
2017,10,13,03,45,5.40
2017,10,13,03,46,5.40
2017,10,13,03,47,5.40
2017,10,13,03,48,5.40
2017,10,13,03,49,5.40
2017,10,13,03,50,5.40
2017,10,13,03,51,5.40
2017,10,13,03,52,5.40
2017,10,13,03,53,5.40
2017,10,13,03,54,5.40
2017,10,13,03,55,5.40
2017,10,13,03,56,5.40
2017,10,13,03,57,5.40
2017,10,13,03,58,5.30
2017,10,13,03,59,5.30
2017,10,13,04,00,5.30
2017,10,13,04,01,5.30
2017,10,13,04,02,5.20
2017,10,13,04,03,5.20
2017,10,13,04,04,5.20
2017,10,13,04,05,5.10
2017,10,13,04,06,5.10
2017,10,13,04,07,5.00
2017,10,13,04,08,5.00
2017,10,13,04,09,4.90
2017,10,13,04,10,4.90
2017,10,13,04,11,4.90
2017,10,13,04,12,4.80
2017,10,13,04,13,4.80
2017,10,13,04,14,4.80
2017,10,13,04,15,4.80
2017,10,13,04,16,4.70
2017,10,13,04,17,4.70
2017,10,13,04,18,4.70
2017,10,13,04,19,4.60
2017,10,13,04,20,4.60
2017,10,13,04,21,4.60
2017,10,13,04,22,4.50
2017,10,13,04,23,4.50
2017,10,13,04,24,4.50
2017,10,13,04,25,4.50
2017,10,13,04,26,4.50
2017,10,13,04,27,4.50
2017,10,13,04,28,4.50
2017,10,13,04,29,4.50
2017,10,13,04,30,4.50
2017,10,13,04,31,4.50
2017,10,13,04,32,4.50
2017,10,13,04,33,4.50
2017,10,13,04,34,4.50
2017,10,13,04,35,4.50
2017,10,13,04,36,4.50
2017,10,13,04,37,4.50
2017,10,13,04,38,4.40
2017,10,13,04,39,4.40
2017,10,13,04,40,4.40
2017,10,13,04,41,4.40
2017,10,13,04,42,4.40
2017,10,13,04,43,4.30
2017,10,13,04,44,4.30
2017,10,13,04,45,4.20
2017,10,13,04,46,4.20
2017,10,13,04,47,4.10
2017,10,13,04,48,4.00
2017,10,13,04,49,3.90
2017,10,13,04,50,3.90
2017,10,13,04,51,3.80
2017,10,13,04,52,3.80
2017,10,13,04,53,3.80
2017,10,13,04,54,3.80
2017,10,13,04,55,3.70
2017,10,13,04,56,3.70
2017,10,13,04,57,3.70
2017,10,13,04,58,3.60
2017,10,13,04,59,3.60
2017,10,13,05,00,3.60
2017,10,13,05,01,3.60
2017,10,13,05,02,3.60
2017,10,13,05,03,3.60
2017,10,13,05,04,3.50
2017,10,13,05,05,3.50
2017,10,13,05,06,3.50
2017,10,13,05,07,3.60
2017,10,13,05,08,3.60
2017,10,13,05,09,3.60
2017,10,13,05,10,3.60
2017,10,13,05,11,3.50
2017,10,13,05,12,3.50
2017,10,13,05,13,3.50
2017,10,13,05,14,3.50
2017,10,13,05,15,3.60
2017,10,13,05,16,3.60
2017,10,13,05,17,3.60
2017,10,13,05,18,3.60
2017,10,13,05,19,3.60
2017,10,13,05,20,3.60
2017,10,13,05,21,3.60
2017,10,13,05,22,3.60
2017,10,13,05,23,3.50
2017,10,13,05,24,3.50
2017,10,13,05,25,3.50
2017,10,13,05,26,3.50
2017,10,13,05,27,3.50
2017,10,13,05,28,3.50
2017,10,13,05,29,3.50
2017,10,13,05,30,3.50
2017,10,13,05,31,3.50
2017,10,13,05,32,3.50
2017,10,13,05,33,3.50
2017,10,13,05,34,3.50
2017,10,13,05,35,3.50
2017,10,13,05,36,3.60
2017,10,13,05,37,3.50
2017,10,13,05,38,3.50
2017,10,13,05,39,3.50
2017,10,13,05,40,3.40
2017,10,13,05,41,3.30
2017,10,13,05,42,3.30
2017,10,13,05,43,3.30
2017,10,13,05,44,3.20
2017,10,13,05,45,3.20
2017,10,13,05,46,3.10
2017,10,13,05,47,3.00
2017,10,13,05,48,3.00
2017,10,13,05,49,3.00
2017,10,13,05,50,3.10
2017,10,13,05,51,3.10
2017,10,13,05,52,3.10
2017,10,13,05,53,3.10
2017,10,13,05,54,3.00
2017,10,13,05,55,3.00
2017,10,13,05,56,3.00
2017,10,13,05,57,2.90
2017,10,13,05,58,2.90
2017,10,13,05,59,2.90
2017,10,13,06,00,2.90
2017,10,13,06,01,2.80
2017,10,13,06,02,2.80
2017,10,13,06,03,2.70
2017,10,13,06,04,2.70
2017,10,13,06,05,2.70
2017,10,13,06,06,2.70
2017,10,13,06,07,2.70
2017,10,13,06,08,2.70
2017,10,13,06,09,2.60
2017,10,13,06,10,2.60
2017,10,13,06,11,2.50
2017,10,13,06,12,2.40
2017,10,13,06,13,2.40
2017,10,13,06,14,2.30
2017,10,13,06,15,2.30
2017,10,13,06,16,2.30
2017,10,13,06,17,2.30
2017,10,13,06,18,2.30
2017,10,13,06,19,2.20
2017,10,13,06,20,2.20
2017,10,13,06,21,2.10
2017,10,13,06,22,2.10
2017,10,13,06,23,2.10
2017,10,13,06,24,2.10
2017,10,13,06,25,2.10
2017,10,13,06,26,2.10
2017,10,13,06,27,2.10
2017,10,13,06,28,2.10
2017,10,13,06,29,2.10
2017,10,13,06,30,2.10
2017,10,13,06,31,2.10
2017,10,13,06,32,2.00
2017,10,13,06,33,2.00
2017,10,13,06,34,2.00
2017,10,13,06,35,1.90
2017,10,13,06,36,1.90
2017,10,13,06,37,2.00
2017,10,13,06,38,2.00
2017,10,13,06,39,2.10
2017,10,13,06,40,2.10
2017,10,13,06,41,2.20
2017,10,13,06,42,2.10
2017,10,13,06,43,2.10
2017,10,13,06,44,2.10
2017,10,13,06,45,2.10
2017,10,13,06,46,2.10
2017,10,13,06,47,2.10
2017,10,13,06,48,2.10
2017,10,13,06,49,2.10
2017,10,13,06,50,2.10
2017,10,13,06,51,2.20
2017,10,13,06,52,2.20
2017,10,13,06,53,2.20
2017,10,13,06,54,2.20
2017,10,13,06,55,2.20
2017,10,13,06,56,2.20
2017,10,13,06,57,2.10
2017,10,13,06,58,2.10
2017,10,13,06,59,2.10
2017,10,13,07,00,2.00
2017,10,13,07,01,2.00
2017,10,13,07,02,2.00
2017,10,13,07,03,2.00
2017,10,13,07,04,2.00
2017,10,13,07,05,2.00
2017,10,13,07,06,2.00
2017,10,13,07,07,2.00
2017,10,13,07,08,2.00
2017,10,13,07,09,1.90
2017,10,13,07,10,1.90
2017,10,13,07,11,1.80
2017,10,13,07,12,1.80
2017,10,13,07,13,1.70
2017,10,13,07,14,1.70
2017,10,13,07,15,1.70
2017,10,13,07,16,1.60
2017,10,13,07,17,1.60
2017,10,13,07,18,1.60
2017,10,13,07,19,1.60
2017,10,13,07,20,1.50
2017,10,13,07,21,1.60
2017,10,13,07,22,1.60
2017,10,13,07,23,1.60
2017,10,13,07,24,1.60
2017,10,13,07,25,1.60
2017,10,13,07,26,1.60
2017,10,13,07,27,1.60
2017,10,13,07,28,1.60
2017,10,13,07,29,1.60
2017,10,13,07,30,1.60
2017,10,13,07,31,1.60
2017,10,13,07,32,1.60
2017,10,13,07,33,1.70
2017,10,13,07,34,1.70
2017,10,13,07,35,1.60
2017,10,13,07,36,1.70
2017,10,13,07,37,1.60
2017,10,13,07,38,1.60
2017,10,13,07,39,1.60
2017,10,13,07,40,1.60
2017,10,13,07,41,1.60
2017,10,13,07,42,1.60
2017,10,13,07,43,1.60
2017,10,13,07,44,1.60
2017,10,13,07,45,1.60
2017,10,13,07,46,1.70
2017,10,13,07,47,1.80
2017,10,13,07,48,1.80
2017,10,13,07,49,1.80
2017,10,13,07,50,1.80
2017,10,13,07,51,1.80
2017,10,13,07,52,1.80
2017,10,13,07,53,1.80
2017,10,13,07,54,1.80
2017,10,13,07,55,1.80
2017,10,13,07,56,1.80
2017,10,13,07,57,1.80
2017,10,13,07,58,1.80
2017,10,13,07,59,1.80
2017,10,13,08,00,1.70
2017,10,13,08,01,1.70
2017,10,13,08,02,1.70
2017,10,13,08,03,1.70
2017,10,13,08,04,1.80
2017,10,13,08,05,1.80
2017,10,13,08,06,1.90
2017,10,13,08,07,1.90
2017,10,13,08,08,1.90
2017,10,13,08,09,1.90
2017,10,13,08,10,1.90
2017,10,13,08,11,2.00
2017,10,13,08,12,2.00
2017,10,13,08,13,1.90
2017,10,13,08,14,1.90
2017,10,13,08,15,1.90
2017,10,13,08,16,2.00
2017,10,13,08,17,2.00
2017,10,13,08,18,2.10
2017,10,13,08,19,2.10
2017,10,13,08,20,2.10
2017,10,13,08,21,2.10
2017,10,13,08,22,2.10
2017,10,13,08,23,2.10
2017,10,13,08,24,2.10
2017,10,13,08,25,2.20
2017,10,13,08,26,2.10
2017,10,13,08,27,2.10
2017,10,13,08,28,2.10
2017,10,13,08,29,2.10
2017,10,13,08,30,2.10
2017,10,13,08,31,2.10
2017,10,13,08,32,2.10
2017,10,13,08,33,2.20
2017,10,13,08,34,2.20
2017,10,13,08,35,2.10
2017,10,13,08,36,2.10
2017,10,13,08,37,2.10
2017,10,13,08,38,2.10
2017,10,13,08,39,2.10
2017,10,13,08,40,2.00
2017,10,13,08,41,2.00
2017,10,13,08,42,2.10
2017,10,13,08,43,2.10
2017,10,13,08,44,2.10
2017,10,13,08,45,2.20
2017,10,13,08,46,2.30
2017,10,13,08,47,2.30
2017,10,13,08,48,2.40
2017,10,13,08,49,2.50
2017,10,13,08,50,2.50
2017,10,13,08,51,2.60
2017,10,13,08,52,2.70
2017,10,13,08,53,2.70
2017,10,13,08,54,2.80
2017,10,13,08,55,2.80
2017,10,13,08,56,2.90
2017,10,13,08,57,2.90
2017,10,13,08,58,3.00
2017,10,13,08,59,3.10
2017,10,13,09,00,3.30
2017,10,13,09,01,3.30
2017,10,13,09,02,3.40
2017,10,13,09,03,3.50
2017,10,13,09,04,3.60
2017,10,13,09,05,3.60
2017,10,13,09,06,3.70
2017,10,13,09,07,3.80
2017,10,13,09,08,3.90
2017,10,13,09,09,3.90
2017,10,13,09,10,4.00
2017,10,13,09,11,4.10
2017,10,13,09,12,4.20
2017,10,13,09,13,4.30
2017,10,13,09,14,4.40
2017,10,13,09,15,4.50
2017,10,13,09,16,4.50
2017,10,13,09,17,4.60
2017,10,13,09,18,4.60
2017,10,13,09,19,4.60
2017,10,13,09,20,4.70
2017,10,13,09,21,4.70
2017,10,13,09,22,4.70
2017,10,13,09,23,4.70
2017,10,13,09,24,4.70
2017,10,13,09,25,4.70
2017,10,13,09,26,4.80
2017,10,13,09,27,4.80
2017,10,13,09,28,4.80
2017,10,13,09,29,4.90
2017,10,13,09,30,4.90
2017,10,13,09,31,4.90
2017,10,13,09,32,4.90
2017,10,13,09,33,5.00
2017,10,13,09,34,5.00
2017,10,13,09,35,5.10
2017,10,13,09,36,5.20
2017,10,13,09,37,5.20
2017,10,13,09,38,5.30
2017,10,13,09,39,5.40
2017,10,13,09,40,5.50
2017,10,13,09,41,5.60
2017,10,13,09,42,5.70
2017,10,13,09,43,5.70
2017,10,13,09,44,5.80
2017,10,13,09,45,5.90
2017,10,13,09,46,6.00
2017,10,13,09,47,6.10
2017,10,13,09,48,6.20
2017,10,13,09,49,6.20
2017,10,13,09,50,6.30
2017,10,13,09,51,6.40
2017,10,13,09,52,6.50
2017,10,13,09,53,6.60
2017,10,13,09,54,6.70
2017,10,13,09,55,6.70
2017,10,13,09,56,6.70
2017,10,13,09,57,6.80
2017,10,13,09,58,6.80
2017,10,13,09,59,6.90
2017,10,13,10,00,6.90
2017,10,13,10,01,7.00
2017,10,13,10,02,7.00
2017,10,13,10,03,7.00
2017,10,13,10,04,7.00
2017,10,13,10,05,7.10
2017,10,13,10,06,7.10
2017,10,13,10,07,7.10
2017,10,13,10,08,7.20
2017,10,13,10,09,7.20
2017,10,13,10,10,7.20
2017,10,13,10,11,7.20
2017,10,13,10,12,7.20
2017,10,13,10,13,7.30
2017,10,13,10,14,7.30
2017,10,13,10,15,7.30
2017,10,13,10,16,7.40
2017,10,13,10,17,7.40
2017,10,13,10,18,7.50
2017,10,13,10,19,7.50
2017,10,13,10,20,7.50
2017,10,13,10,21,7.60
2017,10,13,10,22,7.60
2017,10,13,10,23,7.70
2017,10,13,10,24,7.70
2017,10,13,10,25,7.80
2017,10,13,10,26,7.80
2017,10,13,10,27,7.80
2017,10,13,10,28,7.80
2017,10,13,10,29,7.90
2017,10,13,10,30,7.90
2017,10,13,10,31,7.90
2017,10,13,10,32,7.90
2017,10,13,10,33,7.90
2017,10,13,10,34,7.90
2017,10,13,10,35,7.90
2017,10,13,10,36,8.00
2017,10,13,10,37,8.00
2017,10,13,10,38,8.00
2017,10,13,10,39,8.10
2017,10,13,10,40,8.20
2017,10,13,10,41,8.20
2017,10,13,10,42,8.20
2017,10,13,10,43,8.30
2017,10,13,10,44,8.30
2017,10,13,10,45,8.40
2017,10,13,10,46,8.40
2017,10,13,10,47,8.50
2017,10,13,10,48,8.50
2017,10,13,10,49,8.60
2017,10,13,10,50,8.70
2017,10,13,10,51,8.70
2017,10,13,10,52,8.80
2017,10,13,10,53,8.80
2017,10,13,10,54,8.80
2017,10,13,10,55,8.80
2017,10,13,10,56,8.80
2017,10,13,10,57,8.90
2017,10,13,10,58,8.90
2017,10,13,10,59,8.90
2017,10,13,11,00,8.90
2017,10,13,11,01,8.90
2017,10,13,11,02,8.90
2017,10,13,11,03,9.00
2017,10,13,11,04,9.00
2017,10,13,11,05,9.00
2017,10,13,11,06,9.10
2017,10,13,11,07,9.10
2017,10,13,11,08,9.10
2017,10,13,11,09,9.10
2017,10,13,11,10,9.10
2017,10,13,11,11,9.20
2017,10,13,11,12,9.20
2017,10,13,11,13,9.20
2017,10,13,11,14,9.20
2017,10,13,11,15,9.20
2017,10,13,11,16,9.30
2017,10,13,11,17,9.30
2017,10,13,11,18,9.30
2017,10,13,11,19,9.30
2017,10,13,11,20,9.30
2017,10,13,11,21,9.30
2017,10,13,11,22,9.30
2017,10,13,11,23,9.30
2017,10,13,11,24,9.30
2017,10,13,11,25,9.30
2017,10,13,11,26,9.30
2017,10,13,11,27,9.30
2017,10,13,11,28,9.30
2017,10,13,11,29,9.40
2017,10,13,11,30,9.40
2017,10,13,11,31,9.40
2017,10,13,11,32,9.40
2017,10,13,11,33,9.40
2017,10,13,11,34,9.50
2017,10,13,11,35,9.50
2017,10,13,11,36,9.50
2017,10,13,11,37,9.60
2017,10,13,11,38,9.70
2017,10,13,11,39,9.70
2017,10,13,11,40,9.80
2017,10,13,11,41,9.80
2017,10,13,11,42,9.80
2017,10,13,11,43,9.80
2017,10,13,11,44,9.80
2017,10,13,11,45,9.90
2017,10,13,11,46,9.90
2017,10,13,11,47,10.00
2017,10,13,11,48,10.10
2017,10,13,11,49,10.10
2017,10,13,11,50,10.10
2017,10,13,11,51,10.10
2017,10,13,11,52,10.10
2017,10,13,11,53,10.10
2017,10,13,11,54,10.20
2017,10,13,11,55,10.20
2017,10,13,11,56,10.30
2017,10,13,11,57,10.30
2017,10,13,11,58,10.30
2017,10,13,11,59,10.40
2017,10,13,12,00,10.40
2017,10,13,12,01,10.40
2017,10,13,12,02,10.40
2017,10,13,12,03,10.50
2017,10,13,12,04,10.50
2017,10,13,12,05,10.50
2017,10,13,12,06,10.60
2017,10,13,12,07,10.60
2017,10,13,12,08,10.60
2017,10,13,12,09,10.70
2017,10,13,12,10,10.70
2017,10,13,12,11,10.80
2017,10,13,12,12,10.80
2017,10,13,12,13,10.80
2017,10,13,12,14,10.80
2017,10,13,12,15,10.80
2017,10,13,12,16,10.90
2017,10,13,12,17,10.80
2017,10,13,12,18,10.80
2017,10,13,12,19,10.80
2017,10,13,12,20,10.80
2017,10,13,12,21,10.70
2017,10,13,12,22,10.70
2017,10,13,12,23,10.70
2017,10,13,12,24,10.70
2017,10,13,12,25,10.70
2017,10,13,12,26,10.70
2017,10,13,12,27,10.70
2017,10,13,12,28,10.80
2017,10,13,12,29,10.80
2017,10,13,12,30,10.80
2017,10,13,12,31,10.90
2017,10,13,12,32,10.90
2017,10,13,12,33,10.90
2017,10,13,12,34,10.90
2017,10,13,12,35,10.90
2017,10,13,12,36,10.90
2017,10,13,12,37,10.90
2017,10,13,12,38,10.90
2017,10,13,12,39,11.00
2017,10,13,12,40,11.00
2017,10,13,12,41,11.00
2017,10,13,12,42,11.00
2017,10,13,12,43,11.10
2017,10,13,12,44,11.10
2017,10,13,12,45,11.10
2017,10,13,12,46,11.20
2017,10,13,12,47,11.20
2017,10,13,12,48,11.20
2017,10,13,12,49,11.30
2017,10,13,12,50,11.30
2017,10,13,12,51,11.30
2017,10,13,12,52,11.30
2017,10,13,12,53,11.40
2017,10,13,12,54,11.30
2017,10,13,12,55,11.30
2017,10,13,12,56,11.30
2017,10,13,12,57,11.30
2017,10,13,12,58,11.30
2017,10,13,12,59,11.30
2017,10,13,13,00,11.30
2017,10,13,13,01,11.30
2017,10,13,13,02,11.30
2017,10,13,13,03,11.30
2017,10,13,13,04,11.30
2017,10,13,13,05,11.30
2017,10,13,13,06,11.30
2017,10,13,13,07,11.40
2017,10,13,13,08,11.40
2017,10,13,13,09,11.40
2017,10,13,13,10,11.30
2017,10,13,13,11,11.30
2017,10,13,13,12,11.30
2017,10,13,13,13,11.30
2017,10,13,13,14,11.30
2017,10,13,13,15,11.30
2017,10,13,13,16,11.30
2017,10,13,13,17,11.40
2017,10,13,13,18,11.40
2017,10,13,13,19,11.40
2017,10,13,13,20,11.40
2017,10,13,13,21,11.40
2017,10,13,13,22,11.40
2017,10,13,13,23,11.40
2017,10,13,13,24,11.40
2017,10,13,13,25,11.40
2017,10,13,13,26,11.40
2017,10,13,13,27,11.50
2017,10,13,13,28,11.50
2017,10,13,13,29,11.50
2017,10,13,13,30,11.60
2017,10,13,13,31,11.60
2017,10,13,13,32,11.60
2017,10,13,13,33,11.70
2017,10,13,13,34,11.70
2017,10,13,13,35,11.70
2017,10,13,13,36,11.80
2017,10,13,13,37,11.80
2017,10,13,13,38,11.80
2017,10,13,13,39,11.80
2017,10,13,13,40,11.90
2017,10,13,13,41,11.90
2017,10,13,13,42,11.90
2017,10,13,13,43,11.90
2017,10,13,13,44,11.90
2017,10,13,13,45,11.90
2017,10,13,13,46,11.90
2017,10,13,13,47,11.90
2017,10,13,13,48,11.90
2017,10,13,13,49,11.90
2017,10,13,13,50,12.00
2017,10,13,13,51,12.00
2017,10,13,13,52,11.90
2017,10,13,13,53,11.80
2017,10,13,13,54,11.80
2017,10,13,13,55,11.80
2017,10,13,13,56,11.80
2017,10,13,13,57,11.80
2017,10,13,13,58,11.80
2017,10,13,13,59,11.80
2017,10,13,14,00,11.90
2017,10,13,14,01,11.90
2017,10,13,14,02,11.90
2017,10,13,14,03,12.00
2017,10,13,14,04,12.00
2017,10,13,14,05,12.10
2017,10,13,14,06,12.10
2017,10,13,14,07,12.10
2017,10,13,14,08,12.00
2017,10,13,14,09,12.00
2017,10,13,14,10,12.00
2017,10,13,14,11,12.00
2017,10,13,14,12,12.00
2017,10,13,14,13,12.00
2017,10,13,14,14,12.00
2017,10,13,14,15,12.00
2017,10,13,14,16,12.00
2017,10,13,14,17,12.10
2017,10,13,14,18,12.10
2017,10,13,14,19,12.20
2017,10,13,14,20,12.20
2017,10,13,14,21,12.20
2017,10,13,14,22,12.30
2017,10,13,14,23,12.30
2017,10,13,14,24,12.30
2017,10,13,14,25,12.30
2017,10,13,14,26,12.40
2017,10,13,14,27,12.40
2017,10,13,14,28,12.50
2017,10,13,14,29,12.50
2017,10,13,14,30,12.60
2017,10,13,14,31,12.60
2017,10,13,14,32,12.60
2017,10,13,14,33,12.60
2017,10,13,14,34,12.60
2017,10,13,14,35,12.60
2017,10,13,14,36,12.60
2017,10,13,14,37,12.60
2017,10,13,14,38,12.60
2017,10,13,14,39,12.60
2017,10,13,14,40,12.60
2017,10,13,14,41,12.60
2017,10,13,14,42,12.60
2017,10,13,14,43,12.60
2017,10,13,14,44,12.60
2017,10,13,14,45,12.60
2017,10,13,14,46,12.60
2017,10,13,14,47,12.60
2017,10,13,14,48,12.60
2017,10,13,14,49,12.50
2017,10,13,14,50,12.50
2017,10,13,14,51,12.50
2017,10,13,14,52,12.50
2017,10,13,14,53,12.50
2017,10,13,14,54,12.60
2017,10,13,14,55,12.50
2017,10,13,14,56,12.50
2017,10,13,14,57,12.40
2017,10,13,14,58,12.40
2017,10,13,14,59,12.30
2017,10,13,15,00,12.30
2017,10,13,15,01,12.40
2017,10,13,15,02,12.40
2017,10,13,15,03,12.40
2017,10,13,15,04,12.40
2017,10,13,15,05,12.30
2017,10,13,15,06,12.30
2017,10,13,15,07,12.30
2017,10,13,15,08,12.30
2017,10,13,15,09,12.30
2017,10,13,15,10,12.40
2017,10,13,15,11,12.40
2017,10,13,15,12,12.40
2017,10,13,15,13,12.40
2017,10,13,15,14,12.50
2017,10,13,15,15,12.50
2017,10,13,15,16,12.60
2017,10,13,15,17,12.60
2017,10,13,15,18,12.60
2017,10,13,15,19,12.70
2017,10,13,15,20,12.70
2017,10,13,15,21,12.70
2017,10,13,15,22,12.70
2017,10,13,15,23,12.70
2017,10,13,15,24,12.70
2017,10,13,15,25,12.70
2017,10,13,15,26,12.70
2017,10,13,15,27,12.60
2017,10,13,15,28,12.60
2017,10,13,15,29,12.60
2017,10,13,15,30,12.50
2017,10,13,15,31,12.50
2017,10,13,15,32,12.50
2017,10,13,15,33,12.50
2017,10,13,15,34,12.40
2017,10,13,15,35,12.40
2017,10,13,15,36,12.40
2017,10,13,15,37,12.40
2017,10,13,15,38,12.30
2017,10,13,15,39,12.30
2017,10,13,15,40,12.20
2017,10,13,15,41,12.20
2017,10,13,15,42,12.20
2017,10,13,15,43,12.20
2017,10,13,15,44,12.20
2017,10,13,15,45,12.20
2017,10,13,15,46,12.20
2017,10,13,15,47,12.20
2017,10,13,15,48,12.20
2017,10,13,15,49,12.10
2017,10,13,15,50,12.20
2017,10,13,15,51,12.20
2017,10,13,15,52,12.20
2017,10,13,15,53,12.20
2017,10,13,15,54,12.10
2017,10,13,15,55,12.10
2017,10,13,15,56,12.10
2017,10,13,15,57,12.10
2017,10,13,15,58,12.10
2017,10,13,15,59,12.10
2017,10,13,16,00,12.10
2017,10,13,16,01,12.10
2017,10,13,16,02,12.10
2017,10,13,16,03,12.10
2017,10,13,16,04,12.10
2017,10,13,16,05,12.10
2017,10,13,16,06,12.10
2017,10,13,16,07,12.10
2017,10,13,16,08,12.10
2017,10,13,16,09,12.20
2017,10,13,16,10,12.20
2017,10,13,16,11,12.20
2017,10,13,16,12,12.20
2017,10,13,16,13,12.10
2017,10,13,16,14,12.10
2017,10,13,16,15,12.10
2017,10,13,16,16,12.10
2017,10,13,16,17,12.10
2017,10,13,16,18,12.10
2017,10,13,16,19,12.10
2017,10,13,16,20,12.10
2017,10,13,16,21,12.10
2017,10,13,16,22,12.10
2017,10,13,16,23,12.10
2017,10,13,16,24,12.10
2017,10,13,16,25,12.10
2017,10,13,16,26,12.10
2017,10,13,16,27,12.10
2017,10,13,16,28,12.10
2017,10,13,16,29,12.10
2017,10,13,16,30,12.10
2017,10,13,16,31,12.10
2017,10,13,16,32,12.10
2017,10,13,16,33,12.10
2017,10,13,16,34,12.10
2017,10,13,16,35,12.10
2017,10,13,16,36,12.10
2017,10,13,16,37,12.10
2017,10,13,16,38,12.10
2017,10,13,16,39,12.10
2017,10,13,16,40,12.10
2017,10,13,16,41,12.10
2017,10,13,16,42,12.10
2017,10,13,16,43,12.10
2017,10,13,16,44,12.10
2017,10,13,16,45,12.10
2017,10,13,16,46,12.10
2017,10,13,16,47,12.10
2017,10,13,16,48,12.10
2017,10,13,16,49,12.10
2017,10,13,16,50,12.20
2017,10,13,16,51,12.20
2017,10,13,16,52,12.20
2017,10,13,16,53,12.20
2017,10,13,16,54,12.30
2017,10,13,16,55,12.30
2017,10,13,16,56,12.30
2017,10,13,16,57,12.30
2017,10,13,16,58,12.30
2017,10,13,16,59,12.30
2017,10,13,17,00,12.30
2017,10,13,17,01,12.30
2017,10,13,17,02,12.30
2017,10,13,17,03,12.30
2017,10,13,17,04,12.30
2017,10,13,17,05,12.30
2017,10,13,17,06,12.30
2017,10,13,17,07,12.30
2017,10,13,17,08,12.30
2017,10,13,17,09,12.20
2017,10,13,17,10,12.20
2017,10,13,17,11,12.20
2017,10,13,17,12,12.20
2017,10,13,17,13,12.20
2017,10,13,17,14,12.20
2017,10,13,17,15,12.10
2017,10,13,17,16,12.10
2017,10,13,17,17,12.10
2017,10,13,17,18,12.00
2017,10,13,17,19,12.00
2017,10,13,17,20,11.90
2017,10,13,17,21,11.90
2017,10,13,17,22,11.90
2017,10,13,17,23,11.90
2017,10,13,17,24,11.90
2017,10,13,17,25,11.90
2017,10,13,17,26,11.80
2017,10,13,17,27,11.80
2017,10,13,17,28,11.80
2017,10,13,17,29,11.70
2017,10,13,17,30,11.70
2017,10,13,17,31,11.70
2017,10,13,17,32,11.70
2017,10,13,17,33,11.60
2017,10,13,17,34,11.60
2017,10,13,17,35,11.60
2017,10,13,17,36,11.60
2017,10,13,17,37,11.50
2017,10,13,17,38,11.50
2017,10,13,17,39,11.50
2017,10,13,17,40,11.40
2017,10,13,17,41,11.40
2017,10,13,17,42,11.40
2017,10,13,17,43,11.40
2017,10,13,17,44,11.40
2017,10,13,17,45,11.40
2017,10,13,17,46,11.40
2017,10,13,17,47,11.40
2017,10,13,17,48,11.40
2017,10,13,17,49,11.40
2017,10,13,17,50,11.40